Location: Carbonear
(47.7333°N, 53.2500°W)
Time: 16:09:39
(UTC+00:00)

CUTE-I - Pass Details

Date: 30 November 2022
Orbit: 809 x 824 km, 98.7° (Epoch: 05 February)

Event Time Altitude Azimuth Distance (km) Brightness Sun altitude
Rises 09:02:44 0° 23° (NNE) 3,368 ? -18.9°
Reaches altitude 10° 09:05:25 10° 35° (NE) 2,432 ? -18.5°
Maximum altitude 09:10:02 28° 94° (E) 1,493 ? -17.7°
Drops below altitude 10° 09:14:37 10° 153° (SSE) 2,420 ? -17.0°
Sets 09:17:16 0° 165° (SSE) 3,348 ? -16.6°
